FW5121 Tampa FL US current weather conditions

sailwx.info

Wind from 287 at 2 knots gusting 4

Air temperature 12.2° C
Dewpoint 10.1° C

Last reported at 2019-Nov-17 22:06 UTC.
Time now 2019-Nov-17 22:40 UTC

Location: N 28°04' W 082°47'.
View on Google Maps.

See reports from other nearby stations

  
Tides and Currents Weather Stations Pressure Air Temp Water Temp Dewpoint Dewpoint Depression Visibility Wind Speed Wind Dir Waves Ship Positions
date/time (UTC)wind fromknots sea level pressurealtimeterstation pressurevisibilityair tempwater tempwave heightnotes
2019-Nov-17 22:06 287 2 gusting 4 12.2
2019-Nov-17 22:01 260 4 gusting 6 12.2
2019-Nov-17 21:56 325 4 gusting 6 12.2
2019-Nov-17 21:51 304 2 gusting 6 12.2
2019-Nov-17 21:46 292 2 gusting 6 12.2
2019-Nov-17 21:41 274 2 gusting 6 12.2
2019-Nov-17 21:36 266 2 gusting 4 12.2
2019-Nov-17 21:31 299 4 gusting 6 12.2
2019-Nov-17 21:26 279 4 gusting 6 12.2
2019-Nov-17 21:21 318 1 gusting 6 12.8
2019-Nov-17 21:16 334 1 gusting 6 12.8
2019-Nov-17 21:11 324 2 gusting 5 12.8
2019-Nov-17 21:06 004 2 gusting 5 12.8
2019-Nov-17 21:01 321 1 gusting 4 12.8
2019-Nov-17 20:56 283 1 gusting 6 12.8
2019-Nov-17 20:51 220 1 gusting 6 12.8
2019-Nov-17 20:46 329 1 gusting 5 12.8
2019-Nov-17 20:41 311 2 gusting 4 12.8
2019-Nov-17 20:36 273 2 gusting 5 12.8
2019-Nov-17 20:31 319 1 gusting 8 12.8
2019-Nov-17 20:26 285 1 gusting 5 12.8
2019-Nov-17 20:21 314 2 gusting 4 12.8
2019-Nov-17 20:16 242 2 gusting 5 12.8
2019-Nov-17 20:11 266 2 gusting 6 12.8
2019-Nov-17 20:06 263 2 gusting 6 12.8
2019-Nov-17 20:01 299 2 gusting 5 12.8
2019-Nov-17 19:56 295 2 gusting 6 12.8
2019-Nov-17 19:51 279 2 gusting 6 12.8
2019-Nov-17 19:46 268 2 gusting 6 12.8
2019-Nov-17 19:41 253 2 gusting 5 12.8
2019-Nov-17 19:36 267 2 gusting 5 12.8
2019-Nov-17 19:31 264 1 gusting 6 12.8
2019-Nov-17 19:26 266 1 gusting 5 12.8
2019-Nov-17 19:21 302 1 gusting 4 12.8
2019-Nov-17 19:16 248 1 gusting 6 12.8
2019-Nov-17 19:11 358 1 gusting 4 12.8
2019-Nov-17 19:06 013 1 gusting 4 12.8
2019-Nov-17 19:01 342 2 gusting 5 12.8
2019-Nov-17 18:56 244 2 gusting 4 12.8
2019-Nov-17 18:51 271 1 gusting 4 12.8
2019-Nov-17 18:46 253 1 gusting 5 12.8
2019-Nov-17 18:41 247 2 gusting 5 12.8
2019-Nov-17 18:36 258 2 gusting 5 12.8
2019-Nov-17 18:31 302 2 gusting 5 12.8
2019-Nov-17 18:26 247 2 gusting 6 12.8
2019-Nov-17 18:21 255 1 gusting 5 12.8
2019-Nov-17 18:16 350 1 gusting 4 12.8
2019-Nov-17 18:11 331 1 gusting 4 12.2
2019-Nov-17 18:06 263 1 gusting 1 12.2
2019-Nov-17 18:01 265 1 gusting 6 12.2
2019-Nov-17 17:56 320 1 gusting 5 12.2
2019-Nov-17 17:51 298 1 gusting 5 12.2
2019-Nov-17 17:46 266 1 gusting 5 12.2
2019-Nov-17 17:41 277 1 gusting 5 12.2
2019-Nov-17 17:36 258 1 gusting 4 12.2
2019-Nov-17 17:31 283 1 gusting 5 12.2
2019-Nov-17 17:26 231 1 gusting 4 12.2
2019-Nov-17 17:21 292 2 gusting 4 12.2
2019-Nov-17 17:16 321 2 gusting 4 12.2
2019-Nov-17 17:11 257 1 gusting 6 12.2
2019-Nov-17 17:06 267 1 gusting 4 12.2
2019-Nov-17 17:01 262 1 gusting 5 12.2
2019-Nov-17 16:56 327 1 gusting 5 11.7
2019-Nov-17 16:51 307 1 gusting 4 11.7
2019-Nov-17 16:46 240 1 gusting 5 11.7
2019-Nov-17 16:41 336 1 gusting 4 11.7
2019-Nov-17 16:36 262 1 gusting 4 11.7
2019-Nov-17 16:31 285 1 gusting 5 11.7
2019-Nov-17 16:26 258 1 gusting 4 11.7
2019-Nov-17 16:21 261 2 gusting 5 11.7
2019-Nov-17 16:16 309 2 gusting 6 11.7
2019-Nov-17 16:11 303 1 gusting 5 11.7
2019-Nov-17 16:06 204 1 gusting 4 11.7
2019-Nov-17 16:01 241 1 gusting 4 11.7
2019-Nov-17 15:56 297 1 gusting 4 11.7
2019-Nov-17 15:51 322 1 gusting 5 11.7
2019-Nov-17 15:46 010 1 gusting 4 11.7
2019-Nov-17 15:41 288 1 gusting 4 11.7
2019-Nov-17 15:36 322 1 gusting 2 11.7
2019-Nov-17 15:31 013 1 gusting 6 11.7
2019-Nov-17 15:26 015 1 gusting 5 11.7
2019-Nov-17 15:21 005 1 gusting 6 11.1
2019-Nov-17 15:16 345 1 gusting 2 11.1
2019-Nov-17 15:11 351 4 gusting 6 11.1
2019-Nov-17 15:06 338 4 gusting 5 11.1
2019-Nov-17 15:01 311 1 gusting 7 11.1
2019-Nov-17 14:56 339 1 gusting 5 11.1
2019-Nov-17 14:51 270 1 gusting 4 11.1
2019-Nov-17 14:46 297 1 gusting 6 11.1
2019-Nov-17 14:41 311 2 gusting 5 11.1
2019-Nov-17 14:36 321 2 gusting 5 10.6
2019-Nov-17 14:31 333 2 gusting 6 10.6
2019-Nov-17 14:26 349 2 gusting 6 10.6
2019-Nov-17 14:21 341 4 gusting 6 10.6
2019-Nov-17 14:16 330 4 gusting 6 10.6
2019-Nov-17 14:11 327 2 gusting 6 10.6
2019-Nov-17 14:06 307 2 gusting 6 10.6
2019-Nov-17 14:01 313 1 gusting 6 10.6
2019-Nov-17 13:56 283 1 gusting 5 10.6
2019-Nov-17 13:51 285 4 gusting 5 10.6
2019-Nov-17 13:46 317 4 gusting 6 10.6
2019-Nov-17 13:41 280 4 gusting 6 10.6
2019-Nov-17 13:36 275 4 gusting 7 10.6
2019-Nov-17 13:31 308 4 gusting 6 10.6
2019-Nov-17 13:26 312 4 gusting 10 10.6
2019-Nov-17 13:21 293 2 gusting 7 10.6
2019-Nov-17 13:16 322 2 gusting 7 10.6
2019-Nov-17 13:11 279 4 gusting 5 10.6
2019-Nov-17 13:06 319 4 gusting 5 10.0
2019-Nov-17 13:01 310 2 gusting 7 10.0
2019-Nov-17 12:56 296 2 gusting 7 10.6
2019-Nov-17 12:51 276 2 gusting 4 10.0
2019-Nov-17 12:46 305 2 gusting 5 10.0
2019-Nov-17 12:41 293 4 gusting 7 10.0
2019-Nov-17 12:36 307 4 gusting 6 10.0
2019-Nov-17 12:31 315 4 gusting 10 10.0
2019-Nov-17 12:26 271 4 gusting 6 10.0
2019-Nov-17 12:21 294 2 gusting 6 10.0
2019-Nov-17 12:16 302 2 gusting 7 10.0
2019-Nov-17 12:11 310 2 gusting 5 10.0
2019-Nov-17 12:06 331 2 gusting 6 10.0
2019-Nov-17 12:01 338 2 gusting 6 10.0
2019-Nov-17 11:56 322 2 gusting 6 10.0
2019-Nov-17 11:51 336 4 gusting 7 10.0
2019-Nov-17 11:46 322 4 gusting 6 10.0
2019-Nov-17 11:41 001 2 gusting 6 10.0
2019-Nov-17 11:36 326 2 gusting 6 10.0
2019-Nov-17 11:31 289 2 gusting 6 10.0
2019-Nov-17 11:26 312 2 gusting 6 10.0
2019-Nov-17 11:21 313 2 gusting 6 10.0
2019-Nov-17 11:16 338 2 gusting 5 10.0
2019-Nov-17 11:11 314 4 gusting 5 10.0
2019-Nov-17 11:06 326 4 gusting 7 10.0
2019-Nov-17 11:01 326 2 gusting 7 10.0
2019-Nov-17 10:56 285 2 gusting 8 10.0
2019-Nov-17 10:51 295 4 gusting 5 10.0
2019-Nov-17 10:46 292 4 gusting 6 10.0
2019-Nov-17 10:41 307 2 gusting 7 10.0
2019-Nov-17 10:36 300 2 gusting 5 10.0
2019-Nov-17 10:31 10.0
2019-Nov-17 10:26 315 4 gusting 6 10.0
2019-Nov-17 10:21 347 4 gusting 6 10.0
2019-Nov-17 10:16 338 4 gusting 7 10.0
2019-Nov-17 10:11 273 4 gusting 7 10.0
2019-Nov-17 10:06 301 4 gusting 6 10.0
2019-Nov-17 10:01 291 4 gusting 10 10.0
2019-Nov-17 09:56 303 4 gusting 8 10.0
2019-Nov-17 09:51 319 4 gusting 6 10.0
2019-Nov-17 09:46 284 4 gusting 6 10.0
2019-Nov-17 09:41 307 2 gusting 6 10.0
2019-Nov-17 09:36 309 2 gusting 6 10.6
2019-Nov-17 09:31 275 4 gusting 6 10.6
2019-Nov-17 09:26 304 4 gusting 7 10.6
2019-Nov-17 09:21 345 4 gusting 7 10.6
2019-Nov-17 09:16 10.6
2019-Nov-17 09:11 305 4 gusting 6 10.6
2019-Nov-17 09:06 311 4 gusting 7 10.6
2019-Nov-17 09:01 331 4 gusting 7 10.6
2019-Nov-17 08:56 326 4 gusting 6 10.6
2019-Nov-17 08:51 329 2 gusting 6 10.6
2019-Nov-17 08:46 325 2 gusting 6 10.6
2019-Nov-17 08:41 307 1 gusting 6 10.6
2019-Nov-17 08:36 345 1 gusting 5 10.6
2019-Nov-17 08:31 292 2 gusting 6 10.6
2019-Nov-17 08:26 295 2 gusting 4 10.6
2019-Nov-17 08:21 303 2 gusting 5 10.6
2019-Nov-17 08:16 300 2 gusting 5 10.6
2019-Nov-17 08:11 289 2 gusting 5 10.6
2019-Nov-17 08:06 330 2 gusting 6 10.6
2019-Nov-17 08:01 316 2 gusting 6 10.6
2019-Nov-17 07:56 276 2 gusting 6 10.6
2019-Nov-17 07:51 321 4 gusting 5 10.6
2019-Nov-17 07:46 327 4 gusting 7 10.6
2019-Nov-17 07:41 319 4 gusting 6 10.6
2019-Nov-17 07:36 285 4 gusting 6 10.6
2019-Nov-17 07:31 270 4 gusting 6 10.6
2019-Nov-17 07:26 323 4 gusting 6 10.6
2019-Nov-17 07:21 301 2 gusting 5 10.6
2019-Nov-17 07:16 265 2 gusting 6 10.6
2019-Nov-17 07:11 316 2 gusting 5 10.6
2019-Nov-17 07:06 320 2 gusting 4 10.6
2019-Nov-17 07:01 287 2 gusting 4 10.6
2019-Nov-17 06:56 321 2 gusting 6 10.6
2019-Nov-17 06:51 319 2 gusting 8 10.6
2019-Nov-17 06:46 323 2 gusting 6 10.6
2019-Nov-17 06:41 329 4 gusting 6 10.6
2019-Nov-17 06:36 312 4 gusting 6 10.6
2019-Nov-17 06:31 345 2 gusting 6 10.6
2019-Nov-17 06:26 310 2 gusting 6 10.6
2019-Nov-17 06:21 10.6
2019-Nov-17 06:16 341 4 gusting 7 10.6
2019-Nov-17 06:11 325 4 gusting 6 10.6
2019-Nov-17 06:06 215 3 gusting 6 10.6
2019-Nov-17 06:01 342 2 gusting 6 10.6
2019-Nov-17 05:56 359 2 gusting 7 10.6
2019-Nov-17 05:51 330 1 gusting 6 10.6
2019-Nov-17 05:46 316 1 gusting 6 10.6
2019-Nov-17 05:41 314 1 gusting 5 10.6
2019-Nov-17 05:36 352 1 gusting 4 10.6
2019-Nov-17 05:31 354 1 gusting 5 10.6
2019-Nov-17 05:26 336 1 gusting 4 10.6
2019-Nov-17 05:21 346 2 gusting 5 10.6
2019-Nov-17 05:16 317 2 gusting 6 10.6
2019-Nov-17 05:11 351 1 gusting 5 10.6
2019-Nov-17 05:06 358 1 gusting 4 10.6
2019-Nov-17 05:01 359 1 gusting 5 10.6
2019-Nov-17 04:56 321 1 gusting 4 10.6
2019-Nov-17 04:51 042 2 gusting 5 10.6
2019-Nov-17 04:46 056 2 gusting 6 10.6
2019-Nov-17 04:41 010 2 gusting 6 10.6
2019-Nov-17 04:36 350 2 gusting 8 10.6
2019-Nov-17 04:31 327 4 gusting 6 10.6
2019-Nov-17 04:26 322 4 gusting 6 10.6
2019-Nov-17 04:21 336 4 gusting 5 10.6
2019-Nov-17 04:16 305 4 gusting 7 10.6
2019-Nov-17 04:11 321 2 gusting 6 10.6
2019-Nov-17 04:06 319 2 gusting 6 10.6
2019-Nov-17 04:01 309 2 gusting 7 10.6
2019-Nov-17 03:56 341 2 gusting 8 10.6
2019-Nov-17 03:51 304 4 gusting 6 11.1
2019-Nov-17 03:46 347 4 gusting 7 11.1
2019-Nov-17 03:41 357 4 gusting 6 11.1
2019-Nov-17 03:36 334 4 gusting 6 11.1
2019-Nov-17 03:31 337 4 gusting 7 11.1
2019-Nov-17 03:26 329 4 gusting 7 11.1
2019-Nov-17 03:21 345 4 gusting 7 11.1
2019-Nov-17 03:16 309 4 gusting 6 11.1
2019-Nov-17 03:11 331 5 gusting 10 11.1
2019-Nov-17 03:06 316 5 gusting 10 11.1
2019-Nov-17 03:01 329 4 gusting 10 11.1
2019-Nov-17 02:56 298 4 gusting 7 11.1
2019-Nov-17 02:51 347 6 gusting 7 11.1
2019-Nov-17 02:46 326 6 gusting 12 11.1
2019-Nov-17 02:41 328 5 gusting 13 11.7
2019-Nov-17 02:36 317 5 gusting 15 11.7
2019-Nov-17 02:31 323 5 gusting 7 11.7
2019-Nov-17 02:26 325 5 gusting 12 11.7
2019-Nov-17 02:21 323 5 gusting 8 11.7
2019-Nov-17 02:16 341 5 gusting 15 11.7
2019-Nov-17 02:11 325 6 gusting 10 11.7
2019-Nov-17 02:06 316 6 gusting 10 11.7
2019-Nov-17 02:01 336 5 gusting 13 11.7
2019-Nov-17 01:56 327 5 gusting 14 11.7
2019-Nov-17 01:52 328 6 gusting 12 11.7
2019-Nov-17 01:48 292 6 gusting 10 11.7
2019-Nov-17 01:43 310 5 gusting 11 11.7
2019-Nov-17 01:36 340 5 gusting 11 11.7
2019-Nov-17 01:31 332 5 gusting 12 11.7
2019-Nov-17 01:26 335 5 gusting 13 11.7
2019-Nov-17 01:21 319 4 gusting 12 11.7
2019-Nov-17 01:16 312 4 gusting 8 12.2
2019-Nov-17 01:11 319 4 gusting 8 12.2
2019-Nov-17 01:06 301 4 gusting 7 12.2
2019-Nov-17 01:01 315 4 gusting 10 12.2
2019-Nov-17 00:56 310 4 gusting 10 12.2
2019-Nov-17 00:51 307 6 gusting 8 12.2
2019-Nov-17 00:46 324 6 gusting 11 12.2
2019-Nov-17 00:41 306 6 gusting 13 12.2
2019-Nov-17 00:36 316 6 gusting 10 12.2
2019-Nov-17 00:31 310 6 gusting 11 12.2
2019-Nov-17 00:26 317 6 gusting 18 12.2
2019-Nov-17 00:21 297 6 gusting 15 12.2
2019-Nov-17 00:16 291 6 gusting 11 12.2
2019-Nov-17 00:11 296 5 gusting 15 12.2
2019-Nov-17 00:06 288 5 gusting 15 12.2
2019-Nov-17 00:01 320 6 gusting 13 12.2
2019-Nov-16 23:56 313 6 gusting 12 12.2
2019-Nov-16 23:51 308 6 gusting 13 12.2
2019-Nov-16 23:46 325 6 gusting 13 12.8
2019-Nov-16 23:41 325 6 gusting 11 12.8
2019-Nov-16 23:36 310 6 gusting 15 12.8
2019-Nov-16 23:31 297 5 gusting 12 12.8
2019-Nov-16 23:26 279 5 gusting 11 12.8
2019-Nov-16 23:21 300 4 gusting 12 12.8
2019-Nov-16 23:16 299 4 gusting 7 12.8
2019-Nov-16 23:11 317 5 gusting 6 12.8
2019-Nov-16 23:06 313 5 gusting 10 12.8
2019-Nov-16 23:01 314 4 gusting 11 12.8
2019-Nov-16 22:56 316 4 gusting 8 12.8
2019-Nov-16 22:51 295 4 gusting 7 12.8
2019-Nov-16 22:46 325 4 gusting 6 12.8
2019-Nov-16 22:41 291 4 gusting 7 12.8
2019-Nov-16 22:36 323 4 gusting 6 12.8
2019-Nov-16 22:31 319 4 gusting 6 12.8
2019-Nov-16 22:26 315 4 gusting 8 12.8
2019-Nov-16 22:21 325 4 gusting 7 12.8
2019-Nov-16 22:16 326 4 gusting 10 12.8
2019-Nov-16 22:11 341 4 gusting 7 12.8
2019-Nov-16 22:06 292 4 gusting 8 12.8
2019-Nov-16 22:01 323 4 gusting 10 12.8
2019-Nov-16 21:56 296 4 gusting 7 12.8
2019-Nov-16 21:51 310 5 gusting 8 12.8
2019-Nov-16 21:46 277 5 gusting 8 12.8
2019-Nov-16 21:41 275 4 gusting 10 12.8
2019-Nov-16 21:36 298 4 gusting 11 12.8
2019-Nov-16 21:31 269 5 gusting 7 13.3
2019-Nov-16 21:26 305 5 gusting 8 13.3
2019-Nov-16 21:21 289 5 gusting 12 13.3
2019-Nov-16 21:16 272 5 gusting 13 13.3
2019-Nov-16 21:11 300 5 gusting 11 13.3
2019-Nov-16 21:06 307 5 gusting 11 13.3
2019-Nov-16 21:01 275 6 gusting 10 13.3
2019-Nov-16 20:56 276 6 gusting 12 13.3
2019-Nov-16 20:51 301 4 gusting 13 13.3
2019-Nov-16 20:46 274 4 gusting 12 13.3
2019-Nov-16 20:41 296 5 gusting 8 13.3
2019-Nov-16 20:36 263 5 gusting 12 13.3
2019-Nov-16 20:31 296 4 gusting 12 13.3
2019-Nov-16 20:26 302 4 gusting 6 13.3
2019-Nov-16 20:21 278 4 gusting 10 13.3
2019-Nov-16 20:16 268 4 gusting 10 13.3
2019-Nov-16 20:11 292 5 gusting 7 13.3
2019-Nov-16 20:06 253 5 gusting 8 13.3
2019-Nov-16 20:01 269 5 gusting 10 13.3
2019-Nov-16 19:56 329 5 gusting 11 13.3
2019-Nov-16 19:51 280 5 gusting 13 13.3
2019-Nov-16 19:46 259 5 gusting 6 13.9
2019-Nov-16 19:41 277 6 gusting 10 13.9
2019-Nov-16 19:36 281 6 gusting 13 13.9
2019-Nov-16 19:31 298 5 gusting 12 13.9
2019-Nov-16 19:26 279 5 gusting 13 13.9
2019-Nov-16 19:21 320 4 gusting 12 13.9
2019-Nov-16 19:16 307 4 gusting 8 13.9
2019-Nov-16 19:11 268 5 gusting 7 13.9
2019-Nov-16 19:06 291 5 gusting 12 13.9
2019-Nov-16 19:01 259 6 gusting 8 13.9
2019-Nov-16 18:56 322 6 gusting 12 13.9
2019-Nov-16 18:51 287 6 gusting 12 14.4
2019-Nov-16 18:46 296 6 gusting 13 14.4
2019-Nov-16 18:41 302 6 gusting 13 14.4
2019-Nov-16 18:36 271 6 gusting 14 14.4
2019-Nov-16 18:31 270 5 gusting 13 14.4
2019-Nov-16 18:26 259 5 gusting 12 15.0
2019-Nov-16 18:21 275 5 gusting 11 15.0
2019-Nov-16 18:16 276 5 gusting 10 15.0
2019-Nov-16 18:11 272 6 gusting 12 15.0
2019-Nov-16 18:06 292 6 gusting 12 15.0
2019-Nov-16 18:01 263 5 gusting 12 15.0
2019-Nov-16 17:56 269 5 gusting 12 15.0
2019-Nov-16 17:51 291 6 gusting 11 15.0
2019-Nov-16 17:46 276 6 gusting 14 15.0
2019-Nov-16 17:41 257 6 gusting 11 15.0
2019-Nov-16 17:36 272 6 gusting 14 15.0
2019-Nov-16 17:31 287 5 gusting 12 15.6
2019-Nov-16 17:26 288 5 gusting 10 15.6
2019-Nov-16 17:21 282 5 gusting 13 15.6
2019-Nov-16 17:16 261 5 gusting 13 15.6
2019-Nov-16 17:11 257 4 gusting 13 15.0
2019-Nov-16 17:06 283 4 gusting 10 15.0
2019-Nov-16 17:01 302 4 gusting 10 15.0
2019-Nov-16 16:56 288 4 gusting 7 15.0
2019-Nov-16 16:51 266 4 gusting 8 15.0
2019-Nov-16 16:46 294 4 gusting 7 15.0
2019-Nov-16 16:41 254 4 gusting 8 15.0
2019-Nov-16 16:36 314 4 gusting 12 15.0
2019-Nov-16 16:31 317 5 gusting 7 15.0
2019-Nov-16 16:26 283 5 gusting 11 15.0
2019-Nov-16 16:21 276 6 gusting 7 15.0
2019-Nov-16 16:16 286 6 gusting 12 15.0
2019-Nov-16 16:11 267 5 gusting 13 15.0
2019-Nov-16 16:06 312 5 gusting 12 15.0
2019-Nov-16 16:01 282 5 gusting 12 15.0
2019-Nov-16 15:56 264 5 gusting 10 14.4
2019-Nov-16 15:51 263 4 gusting 10 14.4
2019-Nov-16 15:46 281 4 gusting 11 14.4
2019-Nov-16 15:41 281 4 gusting 6 15.0
2019-Nov-16 15:36 280 4 gusting 8 15.0
2019-Nov-16 15:31 289 2 gusting 8 15.0
2019-Nov-16 15:26 287 2 gusting 6 15.0
2019-Nov-16 15:21 270 4 gusting 6 15.0
2019-Nov-16 15:16 304 4 gusting 8 15.0
2019-Nov-16 15:11 320 5 gusting 6 15.0
2019-Nov-16 15:06 298 5 gusting 7 15.0
2019-Nov-16 15:01 272 4 gusting 13 15.0
2019-Nov-16 14:56 277 4 gusting 7 14.4
2019-Nov-16 14:51 292 2 gusting 7 14.4
2019-Nov-16 14:46 272 2 gusting 8 14.4
2019-Nov-16 14:41 285 4 gusting 6 14.4
2019-Nov-16 14:36 298 4 gusting 6 14.4
2019-Nov-16 14:31 315 4 gusting 7 14.4
2019-Nov-16 14:26 289 4 gusting 7 15.0
2019-Nov-16 14:21 326 4 gusting 7 15.0
2019-Nov-16 14:16 310 4 gusting 5 15.0
2019-Nov-16 14:11 286 4 gusting 6 15.0
2019-Nov-16 14:06 258 4 gusting 6 15.0
2019-Nov-16 14:01 283 4 gusting 7 15.0
2019-Nov-16 13:56 296 4 gusting 7 15.0
2019-Nov-16 13:51 341 4 gusting 7 15.0
2019-Nov-16 13:46 292 4 gusting 6 15.0
2019-Nov-16 13:41 311 2 gusting 6 15.0
2019-Nov-16 13:36 284 2 gusting 8 15.0
2019-Nov-16 13:31 266 4 gusting 8 15.0
2019-Nov-16 13:26 300 4 gusting 6 15.0
2019-Nov-16 13:21 310 4 gusting 7 15.0
2019-Nov-16 13:16 329 4 gusting 7 15.0
2019-Nov-16 13:11 285 4 gusting 7 15.0
2019-Nov-16 13:06 287 4 gusting 11 15.0
2019-Nov-16 13:01 263 4 gusting 8 15.0
2019-Nov-16 12:56 259 4 gusting 10 15.0
2019-Nov-16 12:51 298 4 gusting 5 15.0
2019-Nov-16 12:46 308 4 gusting 6 15.0
2019-Nov-16 12:41 266 2 gusting 6 15.0
2019-Nov-16 12:36 274 2 gusting 5 15.0
2019-Nov-16 12:31 267 2 gusting 7 15.0
2019-Nov-16 12:26 257 2 gusting 6 15.0
2019-Nov-16 12:21 279 2 gusting 6 15.0
2019-Nov-16 12:16 299 2 gusting 6 15.0
2019-Nov-16 12:11 281 2 gusting 7 15.0
2019-Nov-16 12:06 305 2 gusting 5 15.0
2019-Nov-16 12:01 297 1 gusting 6 15.0
2019-Nov-16 11:56 315 1 gusting 5 15.0
2019-Nov-16 11:51 280 2 gusting 4 15.0
2019-Nov-16 11:46 282 2 gusting 5 15.0
2019-Nov-16 11:41 288 1 gusting 6 15.6
2019-Nov-16 11:36 285 1 gusting 6 15.6
2019-Nov-16 11:31 276 2 gusting 4 15.6
2019-Nov-16 11:26 271 2 gusting 5 15.6
2019-Nov-16 11:21 304 4 gusting 5 15.6
2019-Nov-16 11:16 295 4 gusting 5 15.6
2019-Nov-16 11:11 260 2 gusting 6 15.6
2019-Nov-16 11:06 276 2 gusting 7 15.6
2019-Nov-16 11:01 290 1 gusting 5 15.6
2019-Nov-16 10:56 246 1 gusting 6 15.6
2019-Nov-16 10:51 258 4 gusting 6 15.6
2019-Nov-16 10:46 288 4 gusting 6 15.6
2019-Nov-16 10:41 313 2 gusting 6 16.1
2019-Nov-16 10:36 299 2 gusting 7 16.1
2019-Nov-16 10:31 308 1 gusting 6 16.1
2019-Nov-16 10:26 280 1 gusting 5 16.1
2019-Nov-16 10:21 294 1 gusting 6 16.1
2019-Nov-16 10:16 281 1 gusting 5 16.1
2019-Nov-16 10:11 253 2 gusting 6 16.1
2019-Nov-16 10:06 269 2 gusting 6 15.6
2019-Nov-16 10:01 249 4 gusting 4 15.6
2019-Nov-16 09:56 262 4 gusting 6 15.6
2019-Nov-16 09:51 276 2 gusting 6 15.6
2019-Nov-16 09:46 294 2 gusting 5 15.6
2019-Nov-16 09:41 264 1 gusting 5 15.6
2019-Nov-16 09:36 263 1 gusting 5 15.6
2019-Nov-16 09:31 281 1 gusting 4 15.6
2019-Nov-16 09:26 284 1 gusting 5 15.6
2019-Nov-16 09:21 297 1 gusting 4 15.6
2019-Nov-16 09:16 293 1 gusting 2 15.6
2019-Nov-16 09:11 324 1 gusting 2 15.6
2019-Nov-16 09:06 327 1 gusting 2 15.6
2019-Nov-16 09:01 327 1 gusting 2 15.6
2019-Nov-16 08:56 327 1 gusting 4 15.6
2019-Nov-16 08:51 255 1 gusting 4 15.6
2019-Nov-16 08:46 256 1 gusting 4 15.6
2019-Nov-16 08:41 290 1 gusting 2 15.0
2019-Nov-16 08:36 281 1 gusting 2 15.0
2019-Nov-16 08:31 303 1 gusting 4 15.0
2019-Nov-16 08:26 312 1 gusting 4 15.0
2019-Nov-16 08:21 265 1 gusting 4 15.0
2019-Nov-16 08:16 342 1 gusting 4 15.0
2019-Nov-16 08:11 309 1 gusting 4 15.6
2019-Nov-16 08:06 296 1 gusting 5 15.6
2019-Nov-16 08:01 314 1 gusting 6 15.6
2019-Nov-16 07:56 331 1 gusting 5 15.6
2019-Nov-16 07:51 318 1 gusting 5 15.6
2019-Nov-16 07:46 337 1 gusting 5 15.6
2019-Nov-16 07:41 299 1 gusting 6 15.6
2019-Nov-16 07:36 320 1 gusting 4 15.6
2019-Nov-16 07:31 310 2 gusting 6 15.6
2019-Nov-16 07:26 289 2 gusting 5 15.6
2019-Nov-16 07:21 335 1 gusting 5 15.6
2019-Nov-16 07:16 314 1 gusting 5 15.6
2019-Nov-16 07:11 307 1 gusting 4 15.6
2019-Nov-16 07:06 316 1 gusting 5 15.6
2019-Nov-16 07:01 324 2 gusting 4 15.6
2019-Nov-16 06:56 273 2 gusting 6 15.6
2019-Nov-16 06:51 260 1 gusting 5 15.6
2019-Nov-16 06:46 324 1 gusting 6 16.1
2019-Nov-16 06:41 283 1 gusting 5 16.1
2019-Nov-16 06:36 316 1 gusting 2 16.1
2019-Nov-16 06:31 277 2 gusting 4 16.1
2019-Nov-16 06:26 267 2 gusting 8 16.1
2019-Nov-16 06:21 298 1 gusting 6 16.1
2019-Nov-16 06:16 347 1 gusting 5 16.1
2019-Nov-16 06:11 298 1 gusting 5 16.1
2019-Nov-16 06:06 313 1 gusting 4 16.1
2019-Nov-16 06:01 334 2 gusting 6 16.1
2019-Nov-16 05:56 314 2 gusting 5 16.1
2019-Nov-16 05:51 287 4 gusting 5 16.1
2019-Nov-16 05:46 260 4 gusting 5 16.1
2019-Nov-16 05:41 259 4 gusting 6 16.1
2019-Nov-16 05:36 268 4 gusting 6 16.1
2019-Nov-16 05:31 295 2 gusting 6 16.1
2019-Nov-16 05:26 259 2 gusting 6 16.1
2019-Nov-16 05:21 301 4 gusting 5 16.1
2019-Nov-16 05:16 274 4 gusting 6 16.1
2019-Nov-16 05:11 275 4 gusting 7 16.1
2019-Nov-16 05:06 274 4 gusting 8 16.1
2019-Nov-16 05:01 269 2 gusting 7 16.1
2019-Nov-16 04:56 257 2 gusting 6 16.1
2019-Nov-16 04:51 316 2 gusting 6 16.1
2019-Nov-16 04:46 284 2 gusting 6 16.1
2019-Nov-16 04:41 277 4 gusting 6 16.1
2019-Nov-16 04:36 272 4 gusting 6 16.1
2019-Nov-16 04:31 296 2 gusting 8 16.1
2019-Nov-16 04:26 302 2 gusting 6 16.1
2019-Nov-16 04:21 300 4 gusting 8 16.1
2019-Nov-16 04:16 343 4 gusting 6 16.1
2019-Nov-16 04:11 301 4 gusting 10 16.1
2019-Nov-16 04:06 276 4 gusting 8 16.1
2019-Nov-16 04:01 281 4 gusting 8 16.1
2019-Nov-16 03:56 289 4 gusting 12 16.1
2019-Nov-16 03:51 264 4 gusting 7 16.1
2019-Nov-16 03:46 269 4 gusting 8 16.1
2019-Nov-16 03:41 284 4 gusting 7 16.1
2019-Nov-16 03:36 271 4 gusting 6 16.1
2019-Nov-16 03:31 263 4 gusting 6 16.7
2019-Nov-16 03:26 315 4 gusting 8 16.7
2019-Nov-16 03:21 281 4 gusting 10 16.7
2019-Nov-16 03:16 267 4 gusting 7 16.7
2019-Nov-16 03:11 281 4 gusting 7 16.7
2019-Nov-16 03:06 294 4 gusting 7 16.7
2019-Nov-16 03:01 291 5 gusting 10 16.7
2019-Nov-16 02:56 282 5 gusting 11 16.7
2019-Nov-16 02:51 275 5 gusting 10 16.7
2019-Nov-16 02:46 276 5 gusting 8 16.7
2019-Nov-16 02:41 290 4 gusting 11 16.7
2019-Nov-16 02:36 285 4 gusting 8 16.7
2019-Nov-16 02:31 277 4 gusting 7 16.7
2019-Nov-16 02:26 299 4 gusting 11 16.7
2019-Nov-16 02:21 299 4 gusting 10 16.7
2019-Nov-16 02:16 299 4 gusting 7 16.7
2019-Nov-16 02:11 316 4 gusting 6 16.7
2019-Nov-16 02:06 306 4 gusting 7 16.7
2019-Nov-16 02:01 303 4 gusting 8 16.7
2019-Nov-16 01:56 298 4 gusting 6 16.7
2019-Nov-16 01:51 290 4 gusting 6 16.7
2019-Nov-16 01:46 301 4 gusting 8 16.7
2019-Nov-16 01:41 269 2 gusting 6 16.7
2019-Nov-16 01:36 314 2 gusting 6 16.7
2019-Nov-16 01:31 300 2 gusting 6 16.7
2019-Nov-16 01:26 307 2 gusting 6 16.7
2019-Nov-16 01:21 274 2 gusting 4 16.7
2019-Nov-16 01:16 294 2 gusting 6 16.7
2019-Nov-16 01:11 324 2 gusting 6 16.7
2019-Nov-16 01:06 276 2 gusting 5 16.7
2019-Nov-16 01:01 270 4 gusting 6 16.7
2019-Nov-16 00:56 298 4 gusting 7 16.7
2019-Nov-16 00:51 270 4 gusting 6 16.7
2019-Nov-16 00:46 309 4 gusting 6 16.7
2019-Nov-16 00:41 319 4 gusting 8 16.7
2019-Nov-16 00:36 307 4 gusting 6 16.7
2019-Nov-16 00:31 304 1 gusting 7 16.7
2019-Nov-16 00:26 291 1 gusting 5 16.7
2019-Nov-16 00:21 300 2 gusting 5 16.7
2019-Nov-16 00:16 293 2 gusting 6 16.7
2019-Nov-16 00:11 309 4 gusting 7 16.7
2019-Nov-16 00:06 311 4 gusting 5 16.7
2019-Nov-16 00:01 304 4 gusting 7 16.7
2019-Nov-15 23:56 309 4 gusting 7 16.7
2019-Nov-15 23:51 309 2 gusting 7 16.7
2019-Nov-15 23:46 309 2 gusting 6 16.7
2019-Nov-15 23:41 314 4 gusting 5 16.7
2019-Nov-15 23:36 323 4 gusting 6 16.7
2019-Nov-15 23:31 331 4 gusting 7 16.7
2019-Nov-15 23:26 286 4 gusting 8 16.7
2019-Nov-15 23:21 289 4 gusting 7 16.7
2019-Nov-15 23:16 277 4 gusting 10 16.7
2019-Nov-15 23:11 283 4 gusting 8 16.7
2019-Nov-15 23:06 275 4 gusting 6 16.7
2019-Nov-15 23:01 313 4 gusting 8 16.7
2019-Nov-15 22:56 307 4 gusting 7 16.7
2019-Nov-15 22:51 293 4 gusting 6 16.7
2019-Nov-15 22:36 299 4 gusting 6 16.7
2019-Nov-15 22:31 318 2 gusting 7 16.7
2019-Nov-15 22:26 270 2 gusting 8 17.2
2019-Nov-15 22:21 270 4 gusting 7 17.2
2019-Nov-15 22:16 295 4 gusting 6 17.2
2019-Nov-15 22:11 281 2 gusting 5 17.2
2019-Nov-15 22:06 283 2 gusting 7 17.2
2019-Nov-15 22:01 321 4 gusting 6 17.2